Regional Weather Roundup
Issued by NWS

Home | Current Version | Previous Version | Text Only | Print | Product List | Glossary Off
Versions: 1 2 3 4 5 6 7 8 9 10 11 12 13 14 15 16 17 18 19 20 21 22 23 24 25 26 27 28 29 30 31 32 33 34 35 36 37 38 39 40 41 42 43 44 45 46 47 48 49 50

000
ASUS45 KTFX 271310
RWRMT
MONTANA REGIONAL WEATHER ROUNDUP
NATIONAL WEATHER SERVICE GREAT FALLS MT
600 AM MST MON FEB 27 2017

NOTE: "FAIR" INDICATES FEW OR NO CLOUDS BELOW 12000 FEET WITH NO
SIGNIFICANT WEATHER AND/OR OBSTRUCTIONS TO VISIBILITY.

MTZ001>007-043-271400-
WEST OF THE DIVIDE

CITY           SKY/WX    TMP DP  RH WIND       PRES   REMARKS
KALISPELL      LGT SNOW  15  10  80 N12       29.63S WCI   2
MISSOULA       LGT SNOW  22  21  96 SE6       29.59S FOG     WCI  14
BUTTE          CLEAR      9   3  77 S3        29.51S
MULLAN PASS    MOCLDY    15  12  88 CALM      29.43F
ANACONDA         N/A     10   3  72 S3        29.52S
DEER LODGE       N/A     10   7  85 CALM      29.56R
EUREKA           N/A     16  12  86 CALM      29.65S
HAMILTON         N/A     25  18  74 S9        29.56  WCI  15
LIBBY            N/A     19  18  93 CALM      29.62S
RONAN            N/A     19  15  84 N6        29.67S WCI  11
$$

MTZ008-052>055-271400-
SOUTHWEST MONTANA

CITY           SKY/WX    TMP DP  RH WIND       PRES   REMARKS
BOZEMAN        CLEAR     11   8  88 SE6       29.58R WCI   1
DILLON         CLOUDY    14   5  67 S12       29.51S WCI   0
W YELLOWSTONE  CLOUDY    -4  -8  84 CALM      29.53R
ENNIS          MOCLDY    18   7  62 S12       29.57S WCI   5
THREE FORKS      N/A     14 -22  18 W5        29.62S
$$

MTZ009-010-012-014-046-048-049-054-271400-
EAST SLOPES AND CENTRAL MONTANA

CITY           SKY/WX    TMP DP  RH WIND       PRES   REMARKS
CUT BANK       MOCLDY     4   2  91 SE6       29.61F WCI  -7
GREAT FALLS    CLOUDY     8   4  83 NE5       29.64S FOG
MALMSTROM AFB  CLOUDY    10   9  96 N3        29.66S
HELENA         PTCLDY    10   5  80 SW7       29.62S WCI  -1
AUGUSTA        LGT SNOW   3   0  87 E3        29.57F
BOWMANS CRNR   LGT SNOW   7   5  92 CALM      29.58F
CHOTEAU          N/A      7   3  85 CALM      29.63F
CONRAD           N/A      2  -2  83 CALM      29.68F
POWER          LGT SNOW   6   4  91 E5        29.63F
RAYNESFORD       N/A      6   3  90 CALM      29.62S
ULM            SNOWSHWR   9   7  92 MISG      29.65F
$$

MTZ011-013-016-021-045-047-050-051-271400-
NORTH CENTRAL MONTANA

CITY           SKY/WX    TMP DP  RH WIND       PRES   REMARKS
HAVRE          CLOUDY     8   6  92 E6        29.74F WCI  -2
LEWISTOWN      CLOUDY     8   6  92 E9        29.60S WCI  -5
N BAR RANCH    CLOUDY     9   5  85 NE3       29.62S FOG
CHINOOK          N/A      7   3  85 CALM      29.77F
DENTON         FLURRIES  11   9  93 NE9       29.61F WCI  -2
FORT BENTON      N/A     12   9  85 MISG      29.72S
GEYSER         FLURRIES   8   6  90 CALM      29.61S
GRASS RANGE    LGT SNOW  11   9  93 E5        29.61R
JUDITH GAP     FLURRIES   2   0  88 N5        29.57S
ROY            LGT SNOW  12  10  91 MISG      29.65S
STANFORD         N/A      4   3  94 W3        29.58F
WINIFRED       LGT SNOW  11   9  93 E9        29.63S WCI  -2
$$

MTZ017>020-022>027-061-062-271400-
NORTHEAST MONTANA

CITY           SKY/WX    TMP DP  RH WIND       PRES   REMARKS
GLASGOW        CLOUDY    13   9  84 E8        29.76R WCI   2
JORDAN           N/A     17  14  88 NE9       29.70S WCI   6
SIDNEY         LGT SNOW  14  11  87 NE15      29.79S FOG     WCI  -1
WOLF POINT     LGT SNOW  16  10  77 NE13      29.80R WCI   2
PLENTYWOOD       N/A      7   1  78 N7        29.80S WCI  -5
POPLAR           N/A     12   7  79 NE10      29.81S WCI  -1
$$

MTZ028>42-056>058-271400-
SOUTHCENTRAL AND SOUTHEAST MONTANA

CITY           SKY/WX    TMP DP  RH WIND       PRES   REMARKS
BAKER          CLOUDY    22  18  85 SE15      29.62S WCI   9
BILLINGS       CLOUDY    21  18  88 NE7       29.61S WCI  12
LIVINGSTON     CLOUDY    17  13  84 E12       29.55R WCI   4
MILES CITY     CLOUDY    22  18  85 NE17      29.64R WCI   8
BIG TIMBER     CLOUDY    18  14  86 N6        29.60R WCI   9
FORSYTH          N/A     25  21  86 N6        29.64R WCI  18
HARLOWTON      FLURRIES  11   7  83 NE8       29.59R WCI  -1
LAUREL           N/A     21  13  71 N3        29.62R
$$

REGIONAL REPORTS...DAKOTAS

CITY           SKY/WX    TMP DP  RH WIND       PRES   REMARKS
WILLISTON      LGT SNOW  12   8  84 N12       29.82R FOG     WCI  -2
MINOT          LGT SNOW  14   7  73 NW12      29.82R WCI   0
DICKINSON      LGT SNOW  18  15  88 E10       29.68F FOG     WCI   6
BEACH            N/A    N/A N/A N/A MISG        N/A
CROSBY         FLURRIES   7   1  78 NW10      29.85S WCI  -8
TIOGA          LGT SNOW   9   9 100 N9        29.80S WCI  -5
WATFORD CITY   LGT SNOW  14  10  85 N13       29.79S WCI   0
BISMARCK       CLOUDY    11   8  88 E5        29.83S
GRAND FORKS    MOCLDY    13   6  74 S8        29.89F WCI   2
FARGO          CLOUDY    20  14  77 CALM      29.90S
BUFFALO SD       N/A     20  17  88 SE7       29.56F WCI  11
RAPID CITY     CLOUDY    16  10  77 S6        29.63F WCI   7
$$

REGIONAL REPORTS...WYOMING/IDAHO/WASHINGTON

CITY           SKY/WX    TMP DP  RH WIND       PRES   REMARKS
GILLETTE       CLOUDY    26  10  50 SW17      29.55F WCI  13
SHERIDAN       CLOUDY    15   8  73 S8        29.55S WCI   4
BUFFALO WY     CLOUDY    28   5  37 W18       29.53S WCI  15
CODY           CLOUDY    19  11  70 CALM      29.55R
YELLOWSTONE LA   N/A      3   1  91 CALM      29.50R
IDAHO FALLS    CLOUDY    20  20 100 W3        29.61S
SALMON         CLOUDY    19  12  73 N5        29.58R
BOISE          FLURRIES  28  25  88 SE6       29.67R WCI  22
SPOKANE        LGT SNOW  24  22  91 CALM      29.63R VSB 1
$$

REGIONAL REPORTS...ALBERTA

CITY           SKY/WX    TMP DP  RH WIND       PRES   REMARKS
EDMONTON       CLEAR      3  -4  72 SW8       29.63F WCI -10
CALGARY        PTCLDY     1  -2  85 S8        29.57F WCI -12
LETHBRIDGE     CLEAR     -4  -6  92 S7        29.66F WCI -18
MEDICINE HAT   PTCLDY    -4  -8  84 CALM      29.76F
WATERTON GATE    N/A     -4  -9  77 S1          N/A
CARDSTON         N/A      3  -2  78 SE2         N/A
MILK RIVER       N/A      0  -4  85 SE2         N/A
$$

REGIONAL REPORTS...SASKATCHEWAN

CITY           SKY/WX    TMP DP  RH WIND       PRES   REMARKS
SWIFT CURRENT  CLEAR     -6  -9  84 SW6       29.73F WCI -18
REGINA         PTCLDY    -4  -8  84 NW3       29.83S
SASKATOON      CLEAR     -9 -13  84 SW6       29.85R WCI -23
CYPRESS HILLS    N/A     -4  -9  77 W1          N/A
VAL MARIE        N/A      0  -4  85 E2          N/A
ROCKGLEN         N/A      1  -2  85 N3          N/A
ASSINIBOIA       N/A      0  -4  85 S6          N/A  WCI -12
$$



USA.gov is the U.S. government's official web portal to all federal, state and local government web resources and services.